Enid, OK

5:54 PM CDT on October 01, 2016 (GMT -0500)
Vance Air Force Base

Weather History for KEND - September, 2013

Change the Weather History Date:

Friday, September 27, 2013

  Actual Average Record
Temperature  
Mean Temperature 74 °F -  
Max Temperature 89 °F 78 °F 95 °F (1998)
Min Temperature 62 °F 57 °F 42 °F (2000)
Cooling Degree Days 10    
Growing Degree Days 24 (Base 50)    
Moisture  
Dew Point 61 °F    
Average Humidity 58    
Maximum Humidity 88    
Minimum Humidity 40    
Precipitation  
Precipitation 0.00 in - - ()
Sea Level Pressure  
Sea Level Pressure 29.81 in    
Wind  
Wind Speed 15 mph (SSE)    
Max Wind Speed 24 mph    
Max Gust Speed 32 mph    
Visibility 10 miles    
Events      
Averages and records for this station are not official NWS values.
T = Trace of Precipitation, MM = Missing Value Source: NWS Daily Summary

Daily Weather History Graph

Daily Weather History Graph

Search for Another Location

Airport or City:

Trip Planner

Search our weather history database for the weather conditions in past years. The results will help you decide how hot, cold, wet, or windy it might be!

Date:

Astronomy

Sep. 27, 2013 Rise Set
Actual Time 7:23 AM CDT 7:20 PM CDT
Civil Twilight 6:58 AM CDT 7:46 PM CDT
Nautical Twilight 6:28 AM CDT 8:16 PM CDT
Astronomical Twilight 5:58 AM CDT 8:46 PM CDT
Moon 12:30 AM CDT (9/27) 2:51 PM CDT (9/27)
Length of Visible Light 12h 48m
Length of Day
11h 56m
Last Quarter, 45% of the Moon is Illuminated
Sep 27
Last Quarter
Oct 4
New
Oct 11
First Quarter
Oct 18
Full
Oct 26
Last Quarter

Hourly Weather History & Observations

Time (CDT) Temp. Heat Index Dew Point Humidity Pressure Visibility Wind Dir Wind Speed Gust Speed Precip Events Conditions
12:58 AM 75.0 °F - 55.4 °F 50% 29.80 in 10.0 mi South 13.8 mph - N/A   Clear
1:58 AM 72.3 °F - 54.5 °F 53% 29.81 in 10.0 mi SSE 12.7 mph - N/A   Clear
2:58 AM 70.3 °F - 54.0 °F 56% 29.82 in 10.0 mi SSE 15.0 mph - N/A   Clear
3:55 AM 69.8 °F - 53.6 °F 56% 29.80 in 10.0 mi SSE 13.8 mph - N/A   Clear
4:59 AM 66.2 °F - 55.4 °F 68% 29.81 in 10.0 mi SE 11.5 mph - N/A   Clear
5:55 AM 64.4 °F - 57.2 °F 77% 29.83 in 10.0 mi SE 10.4 mph - N/A   Clear
6:57 AM 62.6 °F - 59.0 °F 88% 29.83 in 10.0 mi SE 11.5 mph - N/A   Clear
7:57 AM 62.6 °F - 59.0 °F 88% 29.86 in 10.0 mi SE 11.5 mph - N/A   Partly Cloudy
8:55 AM 68.0 °F - 59.0 °F 73% 29.87 in 10.0 mi SE 12.7 mph - N/A   Clear
9:55 AM 77.0 °F - 62.6 °F 61% 29.86 in 10.0 mi South 18.4 mph 25.3 mph N/A   Partly Cloudy
10:55 AM 80.6 °F 82.3 °F 64.4 °F 58% 29.88 in 10.0 mi South 21.9 mph 25.3 mph N/A   Partly Cloudy
11:55 AM 84.2 °F 85.6 °F 64.4 °F 51% 29.85 in 10.0 mi South 24.2 mph 29.9 mph N/A   Scattered Clouds
12:55 PM 86.0 °F 86.6 °F 62.6 °F 45% 29.82 in 10.0 mi South 20.7 mph 29.9 mph N/A   Scattered Clouds
1:55 PM 87.8 °F 88.5 °F 62.6 °F 43% 29.81 in 10.0 mi South 20.7 mph 25.3 mph N/A   Mostly Cloudy
2:55 PM 87.8 °F 88.5 °F 62.6 °F 43% 29.79 in 10.0 mi SSE 20.7 mph 32.2 mph N/A   Mostly Cloudy
3:55 PM 87.8 °F 88.5 °F 62.6 °F 43% 29.76 in 10.0 mi SSE 17.3 mph 29.9 mph N/A   Mostly Cloudy
4:56 PM 87.8 °F 87.6 °F 60.8 °F 40% 29.77 in 10.0 mi SSE 18.4 mph 29.9 mph N/A   Mostly Cloudy
5:58 PM 87.1 °F 87.5 °F 61.9 °F 43% 29.77 in 10.0 mi SSE 20.7 mph 29.9 mph N/A   Partly Cloudy
6:58 PM 84.7 °F 85.4 °F 62.4 °F 47% 29.75 in 10.0 mi SE 17.3 mph - N/A   Clear
7:58 PM 81.1 °F 82.5 °F 63.3 °F 55% 29.75 in 10.0 mi SE 16.1 mph 20.7 mph N/A   Clear
8:58 PM 79.7 °F - 63.7 °F 58% 29.77 in 10.0 mi SE 12.7 mph - N/A   Clear
9:58 PM 78.6 °F - 64.4 °F 62% 29.78 in 10.0 mi SE 15.0 mph - N/A   Clear
10:58 PM 77.4 °F - 65.5 °F 67% 29.79 in 10.0 mi SE 13.8 mph - N/A   Clear
11:58 PM 77.5 °F - 67.3 °F 71% 29.77 in 10.0 mi SSE 15.0 mph - N/A   Mostly Cloudy